Location: Village de las Huertas
(35.3014°N, 106.4095°W)
Time: 09:26:46
(UTC+00:00)

CZ-4B R/B - Pass Details

Date: 29 October 2020
Orbit: 388 x 461 km, 97.6° (Epoch: 04 December)

Event Time Altitude Azimuth Distance (km) Brightness Sun altitude
Rises 12:03:56 0° 174° (S) 2,477 5.3 -17.0°
Reaches altitude 10° 12:06:00 10° 177° (S) 1,607 4.3 -16.6°
Maximum altitude 12:09:25 62° 259° (W) 525 1.4 -15.9°
Drops below altitude 10° 12:12:50 10° 341° (NNW) 1,606 3.9 -15.2°
Enters shadow 12:13:34 - 343° (NNW) 1,914 4.3 -15.1°
